HAL101 PHNL-KLAX

Flight info

Callsign HAL101
Flight time 4h 44m
Altitude 35000
Route MKK5 KOLEA CLUTS R465 CIVIT/N0478F370 R585 GITLE ADUMM GALIP R585 AUDIA SNAXX RYDRR2
Aircraft L101/H-SDFGHIRWXY/S

Departure

Time 2026-04-22 21:52
Airport Daniel K. Inouye International Airport (PHNL)

Arrival

Time 2026-04-23 02:36
Airport Los Angeles International Airport (KLAX)
Time Latitude Longitude Altitude Speed Heading
2026-04-22 21:24 21.32949 -157.92289 29 ft 0 kts 278°
2026-04-22 21:40 21.32948 -157.92280 29 ft 2 kts 278°
2026-04-22 21:40 21.32946 -157.92268 28 ft 2 kts 278°
2026-04-22 21:40 21.32945 -157.92255 28 ft 2 kts 278°
2026-04-22 21:40 21.32943 -157.92241 29 ft 2 kts 271°
2026-04-22 21:41 21.32947 -157.92228 29 ft 2 kts 220°
2026-04-22 21:41 21.32954 -157.92224 29 ft 0 kts 191°
2026-04-22 21:42 21.32950 -157.92225 29 ft 1 kts 191°
2026-04-22 21:43 21.32944 -157.92226 28 ft 0 kts 191°
2026-04-22 21:45 21.32936 -157.92228 29 ft 3 kts 191°
2026-04-22 21:45 21.32896 -157.92236 29 ft 8 kts 189°
2026-04-22 21:45 21.32823 -157.92247 29 ft 12 kts 187°
2026-04-22 21:46 21.32787 -157.92251 29 ft 3 kts 186°
2026-04-22 21:46 21.32717 -157.92255 29 ft 17 kts 180°
2026-04-22 21:46 21.32579 -157.92259 29 ft 21 kts 184°
2026-04-22 21:46 21.32432 -157.92297 29 ft 21 kts 210°
2026-04-22 21:47 21.32389 -157.92436 29 ft 22 kts 270°
2026-04-22 21:47 21.32386 -157.92607 29 ft 24 kts 257°
2026-04-22 21:47 21.32310 -157.92770 29 ft 25 kts 261°
2026-04-22 21:47 21.32304 -157.92961 29 ft 27 kts 269°
2026-04-22 21:48 21.32304 -157.93167 29 ft 29 kts 273°
2026-04-22 21:48 21.32305 -157.93389 29 ft 31 kts 270°
2026-04-22 21:48 21.32306 -157.93624 29 ft 32 kts 270°
2026-04-22 21:48 21.32305 -157.93871 29 ft 34 kts 270°
2026-04-22 21:49 21.32306 -157.94129 29 ft 35 kts 270°
2026-04-22 21:49 21.32273 -157.94336 29 ft 26 kts 225°
2026-04-22 21:49 21.32114 -157.94433 29 ft 27 kts 210°
2026-04-22 21:49 21.31943 -157.94538 29 ft 29 kts 210°
2026-04-22 21:50 21.31759 -157.94645 29 ft 31 kts 200°
2026-04-22 21:50 21.31546 -157.94645 29 ft 32 kts 170°
2026-04-22 21:50 21.31321 -157.94617 29 ft 33 kts 172°
2026-04-22 21:50 21.31098 -157.94586 29 ft 25 kts 175°
2026-04-22 21:51 21.30933 -157.94572 29 ft 24 kts 181°
2026-04-22 21:51 21.30758 -157.94571 29 ft 26 kts 179°
2026-04-22 21:51 21.30682 -157.94512 30 ft 11 kts 92°
2026-04-22 21:52 21.30682 -157.94495 31 ft 13 kts 92°
2026-04-22 21:52 21.30681 -157.94065 33 ft 100 kts 90°
2026-04-22 21:52 21.30679 -157.93053 27 ft 168 kts 90°
2026-04-22 21:52 21.30696 -157.91731 669 ft 181 kts 88°
2026-04-22 21:53 21.30599 -157.90410 1726 ft 180 kts 107°
2026-04-22 21:53 21.29955 -157.89226 2492 ft 188 kts 133°
2026-04-22 21:53 21.28931 -157.88430 3522 ft 179 kts 156°
2026-04-22 21:53 21.27734 -157.87919 4249 ft 189 kts 159°
2026-04-22 21:54 21.26685 -157.87035 5019 ft 203 kts 135°
2026-04-22 21:54 21.25891 -157.85640 5356 ft 240 kts 119°
2026-04-22 21:54 21.25235 -157.83822 5438 ft 275 kts 109°
2026-04-22 21:54 21.24771 -157.81843 5401 ft 277 kts 103°
2026-04-22 21:55 21.24468 -157.79761 5474 ft 291 kts 95°
2026-04-22 21:55 21.24619 -157.77543 5910 ft 303 kts 77°
2026-04-22 21:55 21.25287 -157.75439 6856 ft 294 kts 66°
2026-04-22 21:55 21.26194 -157.73462 7434 ft 301 kts 61°
2026-04-22 21:56 21.27241 -157.71455 7840 ft 312 kts 58°
2026-04-22 21:56 21.28324 -157.69471 8702 ft 307 kts 58°
2026-04-22 21:56 21.29426 -157.67467 9198 ft 315 kts 58°
2026-04-22 21:56 21.30537 -157.65446 9896 ft 317 kts 58°
2026-04-22 21:57 21.31649 -157.63421 10398 ft 325 kts 58°
2026-04-22 21:57 21.32826 -157.61275 10605 ft 342 kts 58°
2026-04-22 21:57 21.34062 -157.59022 10738 ft 361 kts 58°
2026-04-22 21:57 21.35365 -157.56644 10864 ft 377 kts 58°
2026-04-22 21:58 21.36718 -157.54175 10978 ft 391 kts 58°
2026-04-22 21:58 21.38115 -157.51621 11103 ft 403 kts 58°
2026-04-22 21:58 21.39541 -157.49011 11506 ft 405 kts 58°
2026-04-22 21:58 21.40970 -157.46386 11929 ft 409 kts 58°
2026-04-22 21:59 21.42404 -157.43747 12374 ft 411 kts 58°
2026-04-22 21:59 21.43846 -157.41091 12824 ft 413 kts 58°
2026-04-22 21:59 21.45299 -157.38412 13263 ft 416 kts 58°
2026-04-22 21:59 21.46759 -157.35719 13693 ft 419 kts 58°
2026-04-22 22:00 21.48228 -157.33008 14150 ft 421 kts 58°
2026-04-22 22:00 21.49706 -157.30281 14589 ft 424 kts 58°
2026-04-22 22:00 21.51193 -157.27535 15052 ft 427 kts 58°
2026-04-22 22:00 21.52204 -157.25667 15353 ft 428 kts 58°
2026-04-22 22:01 21.53706 -157.22889 15793 ft 431 kts 58°
2026-04-22 22:01 21.55216 -157.20096 16237 ft 434 kts 57°
2026-04-22 22:01 21.56733 -157.17288 16684 ft 437 kts 57°
2026-04-22 22:01 21.58264 -157.14452 17151 ft 440 kts 57°
2026-04-22 22:02 21.59801 -157.11603 17579 ft 442 kts 57°
2026-04-22 22:02 21.61348 -157.08735 18047 ft 445 kts 57°
2026-04-22 22:02 21.62902 -157.05851 18501 ft 448 kts 57°
2026-04-22 22:02 21.64449 -157.02975 18953 ft 451 kts 57°
2026-04-22 22:03 21.66022 -157.00052 19405 ft 453 kts 57°
2026-04-22 22:03 21.67604 -156.97108 19851 ft 456 kts 57°
2026-04-22 22:03 21.69196 -156.94143 20312 ft 459 kts 57°
2026-04-22 22:03 21.70797 -156.91161 20747 ft 462 kts 57°
2026-04-22 22:04 21.72407 -156.88158 21197 ft 465 kts 57°
2026-04-22 22:04 21.74027 -156.85133 21641 ft 468 kts 57°
2026-04-22 22:04 21.75654 -156.82094 22090 ft 471 kts 57°
2026-04-22 22:04 21.77289 -156.79039 22523 ft 473 kts 57°
2026-04-22 22:05 21.78935 -156.75958 22975 ft 476 kts 57°
2026-04-22 22:05 21.80590 -156.72860 23409 ft 479 kts 57°
2026-04-22 22:05 21.82254 -156.69741 23830 ft 482 kts 57°
2026-04-22 22:05 21.83925 -156.66605 24262 ft 485 kts 57°
2026-04-22 22:06 21.85606 -156.63449 24688 ft 487 kts 57°
2026-04-22 22:06 21.87296 -156.60273 25133 ft 490 kts 57°
2026-04-22 22:06 21.89001 -156.57069 25349 ft 498 kts 57°
2026-04-22 22:06 21.90740 -156.53802 25494 ft 507 kts 57°
2026-04-22 22:07 21.92509 -156.50478 25611 ft 516 kts 57°
2026-04-22 22:07 21.94306 -156.47100 25752 ft 524 kts 57°
2026-04-22 22:07 21.96117 -156.43687 26226 ft 524 kts 57°
2026-04-22 22:07 21.97916 -156.40286 26800 ft 522 kts 57°
2026-04-22 22:08 21.99711 -156.36884 27352 ft 521 kts 57°
2026-04-22 22:08 22.01496 -156.33494 27917 ft 519 kts 57°
2026-04-22 22:08 22.03274 -156.30116 28452 ft 518 kts 57°
2026-04-22 22:08 22.05046 -156.26743 28986 ft 517 kts 57°
2026-04-22 22:09 22.06815 -156.23375 29497 ft 515 kts 57°
2026-04-22 22:09 22.08579 -156.20013 29999 ft 514 kts 57°
2026-04-22 22:09 22.10332 -156.16667 30487 ft 513 kts 57°
2026-04-22 22:09 22.12085 -156.13317 30921 ft 512 kts 57°
2026-04-22 22:10 22.13834 -156.09973 31356 ft 511 kts 57°
2026-04-22 22:10 22.15578 -156.06635 31795 ft 510 kts 57°
2026-04-22 22:10 22.17314 -156.03307 32229 ft 509 kts 57°
2026-04-22 22:10 22.19049 -155.99979 32660 ft 508 kts 57°
2026-04-22 22:11 22.20758 -155.96698 33091 ft 507 kts 57°
2026-04-22 22:11 22.22483 -155.93380 33515 ft 507 kts 57°
2026-04-22 22:11 22.24227 -155.90023 33957 ft 506 kts 57°
2026-04-22 22:11 22.25945 -155.86712 34368 ft 505 kts 57°
2026-04-22 22:12 22.27635 -155.83453 34745 ft 506 kts 57°
2026-04-22 22:12 22.29361 -155.80125 34937 ft 509 kts 57°
2026-04-22 22:12 22.31088 -155.76790 35008 ft 510 kts 57°
2026-04-22 22:13 22.34546 -155.70098 35041 ft 509 kts 57°
2026-04-22 22:13 22.37988 -155.63414 35051 ft 509 kts 57°
2026-04-22 22:14 22.41421 -155.56732 35048 ft 509 kts 57°
2026-04-22 22:14 22.44848 -155.50043 35054 ft 508 kts 57°
2026-04-22 22:15 22.48266 -155.43350 35050 ft 509 kts 57°
2026-04-22 22:15 22.51676 -155.36646 35052 ft 509 kts 57°
2026-04-22 22:16 22.55076 -155.29930 35048 ft 509 kts 58°
2026-04-22 22:16 22.58529 -155.23262 35046 ft 506 kts 52°
2026-04-22 22:17 22.62788 -155.17258 35064 ft 502 kts 47°
2026-04-22 22:17 22.67087 -155.11278 35053 ft 504 kts 49°
2026-04-22 22:18 22.71352 -155.05264 35051 ft 503 kts 48°
2026-04-22 22:18 22.75690 -154.99317 35053 ft 503 kts 47°
2026-04-22 22:19 22.80027 -154.93369 35052 ft 503 kts 47°
2026-04-22 22:19 22.84364 -154.87411 35053 ft 503 kts 47°
2026-04-22 22:20 22.88701 -154.81455 35052 ft 503 kts 47°
2026-04-22 22:20 22.93037 -154.75494 35049 ft 503 kts 47°
2026-04-22 22:21 22.97370 -154.69531 35052 ft 503 kts 47°
2026-04-22 22:21 23.01551 -154.63427 35051 ft 505 kts 52°
2026-04-22 22:22 23.05385 -154.57016 35050 ft 506 kts 53°
2026-04-22 22:22 23.09277 -154.50649 35050 ft 506 kts 52°
2026-04-22 22:23 23.13180 -154.44289 35052 ft 506 kts 53°
2026-04-22 22:23 23.17059 -154.37911 35050 ft 506 kts 53°
2026-04-22 22:24 23.20940 -154.31528 35052 ft 506 kts 53°
2026-04-22 22:24 23.24793 -154.25187 35052 ft 506 kts 53°
2026-04-22 22:25 23.28669 -154.18795 35051 ft 506 kts 53°
2026-04-22 22:25 23.32542 -154.12403 35051 ft 506 kts 53°
2026-04-22 22:26 23.36411 -154.06007 35052 ft 506 kts 53°
2026-04-22 22:26 23.40279 -153.99607 35053 ft 506 kts 53°
2026-04-22 22:27 23.44145 -153.93201 35052 ft 506 kts 53°
2026-04-22 22:27 23.48008 -153.86791 35052 ft 506 kts 53°
2026-04-22 22:28 23.51867 -153.80381 35050 ft 506 kts 53°
2026-04-22 22:28 23.55727 -153.73961 35051 ft 506 kts 53°
2026-04-22 22:29 23.59580 -153.67543 35054 ft 506 kts 53°
2026-04-22 22:29 23.63436 -153.61114 35050 ft 506 kts 53°
2026-04-22 22:30 23.67258 -153.54734 35050 ft 506 kts 53°
2026-04-22 22:30 23.71108 -153.48297 35050 ft 506 kts 53°
2026-04-22 22:31 23.74952 -153.41862 35051 ft 506 kts 53°
2026-04-22 22:31 23.78796 -153.35426 35051 ft 506 kts 53°
2026-04-22 22:32 23.82626 -153.28963 35051 ft 506 kts 53°
2026-04-22 22:32 23.86444 -153.22498 35052 ft 506 kts 53°
2026-04-22 22:33 23.90291 -153.16054 35054 ft 506 kts 53°
2026-04-22 22:33 23.94139 -153.09608 35050 ft 506 kts 53°
2026-04-22 22:34 23.97983 -153.03160 35051 ft 506 kts 53°
2026-04-22 22:34 24.01826 -152.96709 35053 ft 506 kts 53°
2026-04-22 22:35 24.05666 -152.90254 35052 ft 506 kts 53°
2026-04-22 22:35 24.09505 -152.83794 35052 ft 506 kts 53°
2026-04-22 22:36 24.13341 -152.77330 35052 ft 506 kts 53°
2026-04-22 22:36 24.17175 -152.70861 35050 ft 506 kts 53°
2026-04-22 22:37 24.21007 -152.64389 35050 ft 506 kts 53°
2026-04-22 22:37 24.24833 -152.57917 35052 ft 506 kts 53°
2026-04-22 22:38 24.28660 -152.51434 35051 ft 506 kts 53°
2026-04-22 22:38 24.32482 -152.44952 35050 ft 506 kts 53°
2026-04-22 22:39 24.36302 -152.38463 35053 ft 506 kts 53°
2026-04-22 22:39 24.40122 -152.31967 35053 ft 506 kts 53°
2026-04-22 22:40 24.43935 -152.25472 35054 ft 506 kts 53°
2026-04-22 22:40 24.47593 -152.19236 35052 ft 506 kts 53°
2026-04-22 22:41 24.51401 -152.12733 35054 ft 506 kts 53°
2026-04-22 22:41 24.55209 -152.06224 35052 ft 507 kts 53°
2026-04-22 22:42 24.59014 -151.99709 35056 ft 506 kts 53°
2026-04-22 22:42 24.62815 -151.93193 35048 ft 507 kts 53°
2026-04-22 22:43 24.66588 -151.86716 35053 ft 506 kts 53°
2026-04-22 22:43 24.70385 -151.80190 35052 ft 507 kts 53°
2026-04-22 22:44 24.74179 -151.73661 35052 ft 506 kts 53°
2026-04-22 22:44 24.77969 -151.67130 35052 ft 507 kts 53°
2026-04-22 22:45 24.81757 -151.60593 35053 ft 507 kts 53°
2026-04-22 22:45 24.85543 -151.54053 35051 ft 507 kts 54°
2026-04-22 22:46 24.89327 -151.47505 35053 ft 507 kts 54°
2026-04-22 22:46 24.93107 -151.40955 35052 ft 507 kts 54°
2026-04-22 22:47 24.96887 -151.34397 35052 ft 507 kts 54°
2026-04-22 22:47 25.00658 -151.27845 35054 ft 507 kts 54°
2026-04-22 22:48 25.04434 -151.21277 35051 ft 507 kts 54°
2026-04-22 22:48 25.08202 -151.14711 35054 ft 507 kts 54°
2026-04-22 22:49 25.11968 -151.08141 35048 ft 507 kts 54°
2026-04-22 22:49 25.15730 -151.01567 35056 ft 507 kts 54°
2026-04-22 22:50 25.19493 -150.94983 35052 ft 507 kts 54°
2026-04-22 22:50 25.23250 -150.88401 35050 ft 507 kts 54°
2026-04-22 22:51 25.27006 -150.81812 35052 ft 507 kts 54°
2026-04-22 22:51 25.30756 -150.75222 35051 ft 507 kts 54°
2026-04-22 22:52 25.34508 -150.68623 35053 ft 507 kts 54°
2026-04-22 22:52 25.38229 -150.62066 35050 ft 507 kts 54°
2026-04-22 22:53 25.41997 -150.55419 35050 ft 507 kts 54°
2026-04-22 22:53 25.45739 -150.48807 35051 ft 507 kts 54°
2026-04-22 22:54 25.49454 -150.42234 35052 ft 507 kts 54°
2026-04-22 22:54 25.53190 -150.35615 35048 ft 507 kts 54°
2026-04-22 22:55 25.56921 -150.28995 35053 ft 507 kts 54°
2026-04-22 22:55 25.62515 -150.19052 35052 ft 507 kts 54°
2026-04-22 22:56 25.66242 -150.12417 35050 ft 507 kts 54°
2026-04-22 22:56 25.69964 -150.05780 35049 ft 507 kts 54°
2026-04-22 22:57 25.73685 -149.99135 35052 ft 507 kts 54°
2026-04-22 22:57 25.77400 -149.92491 35052 ft 507 kts 54°
2026-04-22 22:58 25.81115 -149.85839 35052 ft 507 kts 54°
2026-04-22 22:58 25.84198 -149.80310 35052 ft 507 kts 54°
2026-04-22 22:59 25.87908 -149.73650 35053 ft 507 kts 54°
2026-04-22 22:59 25.91612 -149.66988 35052 ft 507 kts 54°
2026-04-22 23:00 25.95317 -149.60318 35053 ft 507 kts 54°
2026-04-22 23:00 25.99016 -149.53646 35051 ft 507 kts 54°
2026-04-22 23:01 26.02713 -149.46971 35052 ft 507 kts 54°
2026-04-22 23:01 26.06407 -149.40290 35051 ft 507 kts 54°
2026-04-22 23:02 26.10098 -149.33605 35054 ft 507 kts 54°
2026-04-22 23:02 26.13787 -149.26913 35050 ft 507 kts 54°
2026-04-22 23:03 26.17472 -149.20220 35051 ft 507 kts 55°
2026-04-22 23:03 26.21156 -149.13517 35054 ft 507 kts 55°
2026-04-22 23:04 26.24836 -149.06814 35050 ft 507 kts 55°
2026-04-22 23:04 26.28509 -149.00112 35051 ft 507 kts 55°
2026-04-22 23:05 26.32182 -148.93401 35051 ft 507 kts 55°
2026-04-22 23:05 26.35852 -148.86685 35054 ft 507 kts 55°
2026-04-22 23:06 26.39519 -148.79964 35051 ft 507 kts 55°
2026-04-22 23:06 26.43186 -148.73234 35055 ft 507 kts 55°
2026-04-22 23:07 26.46845 -148.66508 35050 ft 507 kts 55°
2026-04-22 23:07 26.50505 -148.59769 35054 ft 507 kts 55°
2026-04-22 23:08 26.54160 -148.53032 35050 ft 507 kts 55°
2026-04-22 23:08 26.57791 -148.46328 35053 ft 507 kts 55°
2026-04-22 23:09 26.61440 -148.39581 35054 ft 507 kts 55°
2026-04-22 23:09 26.65086 -148.32828 35050 ft 507 kts 55°
2026-04-22 23:10 26.68726 -148.26076 35053 ft 507 kts 55°
2026-04-22 23:10 26.72366 -148.19313 35051 ft 507 kts 55°
2026-04-22 23:11 26.76005 -148.12545 35051 ft 507 kts 55°
2026-04-22 23:11 26.79622 -148.05763 35051 ft 508 kts 56°
2026-04-22 23:12 26.83216 -147.98962 35055 ft 508 kts 56°
2026-04-22 23:12 26.86810 -147.92161 35047 ft 508 kts 56°
2026-04-22 23:13 26.90404 -147.85348 35053 ft 508 kts 56°
2026-04-22 23:13 26.93993 -147.78536 35052 ft 508 kts 56°
2026-04-22 23:14 26.97580 -147.71716 35053 ft 508 kts 56°
2026-04-22 23:14 27.01164 -147.64894 35052 ft 508 kts 56°
2026-04-22 23:15 27.04745 -147.58065 35054 ft 508 kts 56°
2026-04-22 23:15 27.08325 -147.51229 35053 ft 508 kts 56°
2026-04-22 23:16 27.11875 -147.44440 35053 ft 508 kts 56°
2026-04-22 23:16 27.15447 -147.37601 35052 ft 508 kts 56°
2026-04-22 23:17 27.19016 -147.30756 35048 ft 508 kts 56°
2026-04-22 23:17 27.22580 -147.23902 35051 ft 508 kts 57°
2026-04-22 23:18 27.25800 -147.16818 35052 ft 511 kts 61°
2026-04-22 23:18 27.28873 -147.09626 35049 ft 510 kts 60°
2026-04-22 23:19 27.32007 -147.02468 35051 ft 510 kts 60°
2026-04-22 23:19 27.35110 -146.95288 35051 ft 510 kts 60°
2026-04-22 23:20 27.38201 -146.88098 35051 ft 510 kts 60°
2026-04-22 23:20 27.41291 -146.80909 35051 ft 510 kts 60°
2026-04-22 23:21 27.44375 -146.73714 35052 ft 510 kts 60°
2026-04-22 23:21 27.47456 -146.66516 35053 ft 510 kts 61°
2026-04-22 23:22 27.50535 -146.59308 35052 ft 510 kts 61°
2026-04-22 23:22 27.53607 -146.52104 35054 ft 510 kts 61°
2026-04-22 23:23 27.56658 -146.44937 35052 ft 510 kts 61°
2026-04-22 23:23 27.59722 -146.37725 35052 ft 511 kts 61°
2026-04-22 23:24 27.62787 -146.30500 35051 ft 510 kts 61°
2026-04-22 23:24 27.65845 -146.23277 35052 ft 511 kts 61°
2026-04-22 23:25 27.68902 -146.16044 35052 ft 510 kts 61°
2026-04-22 23:25 27.71953 -146.08813 35051 ft 511 kts 61°
2026-04-22 23:26 27.75003 -146.01571 35055 ft 510 kts 61°
2026-04-22 23:26 27.78048 -145.94327 35048 ft 511 kts 61°
2026-04-22 23:27 27.81089 -145.87082 35056 ft 511 kts 61°
2026-04-22 23:27 27.84128 -145.79828 35050 ft 511 kts 61°
2026-04-22 23:28 27.87161 -145.72572 35052 ft 511 kts 61°
2026-04-22 23:28 27.90192 -145.65312 35052 ft 511 kts 61°
2026-04-22 23:29 27.93217 -145.58052 35053 ft 511 kts 61°
2026-04-22 23:29 27.96241 -145.50781 35052 ft 511 kts 61°
2026-04-22 23:30 27.99260 -145.43508 35053 ft 511 kts 61°
2026-04-22 23:30 28.02276 -145.36228 35053 ft 511 kts 61°
2026-04-22 23:31 28.05286 -145.28951 35052 ft 511 kts 61°
2026-04-22 23:31 28.08295 -145.21662 35054 ft 511 kts 62°
2026-04-22 23:32 28.11299 -145.14373 35053 ft 511 kts 62°
2026-04-22 23:32 28.14300 -145.07079 35053 ft 511 kts 62°
2026-04-22 23:33 28.17277 -144.99827 35053 ft 511 kts 62°
2026-04-22 23:33 28.20269 -144.92527 35054 ft 511 kts 62°
2026-04-22 23:34 28.23260 -144.85215 35052 ft 511 kts 62°
2026-04-22 23:34 28.26248 -144.77897 35054 ft 511 kts 62°
2026-04-22 23:35 28.29227 -144.70588 35052 ft 511 kts 62°
2026-04-22 23:35 28.32205 -144.63266 35054 ft 511 kts 62°
2026-04-22 23:36 28.35179 -144.55941 35048 ft 511 kts 62°
2026-04-22 23:36 28.38151 -144.48609 35054 ft 511 kts 62°
2026-04-22 23:37 28.41118 -144.41275 35051 ft 511 kts 62°
2026-04-22 23:37 28.44080 -144.33938 35055 ft 511 kts 62°
2026-04-22 23:38 28.47038 -144.26598 35051 ft 511 kts 62°
2026-04-22 23:38 28.49993 -144.19251 35052 ft 511 kts 62°
2026-04-22 23:39 28.52945 -144.11897 35049 ft 511 kts 62°
2026-04-22 23:39 28.55874 -144.04589 35053 ft 511 kts 62°
2026-04-22 23:40 28.58816 -143.97233 35052 ft 511 kts 62°
2026-04-22 23:40 28.61754 -143.89871 35053 ft 511 kts 62°
2026-04-22 23:41 28.64691 -143.82501 35049 ft 511 kts 62°
2026-04-22 23:41 28.67623 -143.75127 35054 ft 511 kts 62°
2026-04-22 23:42 28.70551 -143.67750 35050 ft 511 kts 62°
2026-04-22 23:42 28.73474 -143.60371 35053 ft 511 kts 62°
2026-04-22 23:43 28.76396 -143.52982 35052 ft 511 kts 62°
2026-04-22 23:43 28.79312 -143.45591 35052 ft 511 kts 62°
2026-04-22 23:44 28.82226 -143.38194 35052 ft 511 kts 62°
2026-04-22 23:44 28.85134 -143.30795 35051 ft 511 kts 62°
2026-04-22 23:45 28.88039 -143.23391 35055 ft 511 kts 62°
2026-04-22 23:45 28.90939 -143.15985 35048 ft 511 kts 62°
2026-04-22 23:46 28.93836 -143.08571 35054 ft 511 kts 63°
2026-04-22 23:46 28.96707 -143.01209 35052 ft 511 kts 63°
2026-04-22 23:47 28.99597 -142.93785 35053 ft 511 kts 63°
2026-04-22 23:47 29.02482 -142.86360 35052 ft 511 kts 63°
2026-04-22 23:48 29.04877 -142.80184 35052 ft 511 kts 63°
2026-04-22 23:48 29.07756 -142.72746 35048 ft 511 kts 63°
2026-04-22 23:49 29.10631 -142.65304 35052 ft 511 kts 63°
2026-04-22 23:49 29.13499 -142.57867 35052 ft 512 kts 63°
2026-04-22 23:50 29.16367 -142.50413 35053 ft 511 kts 63°
2026-04-22 23:50 29.19229 -142.42962 35050 ft 512 kts 63°
2026-04-22 23:51 29.22087 -142.35506 35051 ft 511 kts 63°
2026-04-22 23:51 29.24940 -142.28047 35052 ft 512 kts 63°
2026-04-22 23:52 29.27790 -142.20579 35054 ft 512 kts 63°
2026-04-22 23:52 29.30635 -142.13113 35052 ft 512 kts 63°
2026-04-22 23:53 29.33477 -142.05637 35053 ft 512 kts 63°
2026-04-22 23:53 29.36314 -141.98160 35054 ft 512 kts 63°
2026-04-22 23:54 29.39148 -141.90676 35052 ft 512 kts 63°
2026-04-22 23:54 29.41977 -141.83191 35052 ft 512 kts 63°
2026-04-22 23:55 29.44803 -141.75697 35050 ft 512 kts 63°
2026-04-22 23:55 29.47623 -141.68204 35053 ft 512 kts 63°
2026-04-22 23:56 29.50442 -141.60700 35048 ft 512 kts 63°
2026-04-22 23:56 29.53254 -141.53198 35055 ft 512 kts 63°
2026-04-22 23:57 29.56063 -141.45687 35050 ft 512 kts 63°
2026-04-22 23:57 29.58867 -141.38175 35054 ft 512 kts 63°
2026-04-22 23:58 29.61669 -141.30653 35051 ft 512 kts 63°
2026-04-22 23:58 29.64464 -141.23135 35054 ft 512 kts 63°
2026-04-22 23:59 29.67258 -141.15604 35049 ft 512 kts 63°
2026-04-22 23:59 29.70042 -141.08085 35051 ft 512 kts 64°
2026-04-23 00:00 29.74221 -140.96766 35051 ft 512 kts 64°
2026-04-23 00:01 29.76998 -140.89228 35055 ft 512 kts 64°
2026-04-23 00:01 29.79772 -140.81679 35050 ft 512 kts 64°
2026-04-23 00:02 29.82540 -140.74132 35052 ft 512 kts 64°
2026-04-23 00:02 29.85307 -140.66571 35051 ft 512 kts 64°
2026-04-23 00:03 29.88068 -140.59012 35053 ft 512 kts 64°
2026-04-23 00:03 29.90806 -140.51499 35050 ft 512 kts 64°
2026-04-23 00:04 29.93577 -140.43878 35050 ft 512 kts 64°
2026-04-23 00:04 29.96243 -140.36313 35048 ft 513 kts 66°
2026-04-23 00:05 29.98497 -140.28491 35053 ft 515 kts 69°
2026-04-23 00:05 30.00800 -140.20691 35052 ft 513 kts 66°
2026-04-23 00:06 30.03315 -140.12983 35052 ft 513 kts 66°
2026-04-23 00:06 30.05824 -140.05273 35053 ft 513 kts 66°
2026-04-23 00:07 30.08331 -139.97563 35052 ft 513 kts 66°
2026-04-23 00:07 30.10845 -139.89854 35054 ft 513 kts 66°
2026-04-23 00:08 30.13358 -139.82132 35052 ft 513 kts 66°
2026-04-23 00:08 30.15864 -139.74413 35050 ft 513 kts 66°
2026-04-23 00:09 30.18365 -139.66692 35052 ft 513 kts 66°
2026-04-23 00:09 30.20863 -139.58965 35054 ft 513 kts 66°
2026-04-23 00:10 30.23358 -139.51230 35052 ft 513 kts 66°
2026-04-23 00:10 30.25845 -139.43499 35050 ft 513 kts 66°
2026-04-23 00:11 30.28330 -139.35757 35053 ft 513 kts 66°
2026-04-23 00:11 30.30811 -139.28010 35050 ft 513 kts 66°
2026-04-23 00:12 30.33287 -139.20262 35050 ft 513 kts 66°
2026-04-23 00:12 30.35741 -139.12563 35053 ft 513 kts 66°
2026-04-23 00:13 30.38209 -139.04802 35051 ft 513 kts 66°
2026-04-23 00:13 30.40669 -138.97046 35052 ft 513 kts 66°
2026-04-23 00:14 30.43129 -138.89276 35055 ft 513 kts 66°
2026-04-23 00:14 30.45581 -138.81509 35050 ft 513 kts 66°
2026-04-23 00:15 30.48031 -138.73732 35055 ft 513 kts 66°
2026-04-23 00:15 30.50475 -138.65957 35051 ft 514 kts 66°
2026-04-23 00:16 30.52915 -138.58172 35055 ft 513 kts 67°
2026-04-23 00:16 30.55350 -138.50386 35051 ft 514 kts 67°
2026-04-23 00:17 30.57778 -138.42604 35054 ft 513 kts 67°
2026-04-23 00:17 30.60205 -138.34806 35051 ft 514 kts 67°
2026-04-23 00:18 30.62629 -138.27002 35053 ft 513 kts 67°
2026-04-23 00:18 30.65047 -138.19195 35052 ft 514 kts 67°
2026-04-23 00:19 30.67460 -138.11386 35054 ft 514 kts 67°
2026-04-23 00:19 30.69867 -138.03578 35053 ft 514 kts 67°
2026-04-23 00:20 30.72253 -137.95817 35053 ft 514 kts 67°
2026-04-23 00:20 30.74653 -137.87995 35053 ft 514 kts 67°
2026-04-23 00:21 30.77047 -137.80171 35054 ft 514 kts 67°
2026-04-23 00:21 30.79430 -137.72363 35051 ft 514 kts 67°
2026-04-23 00:22 30.81816 -137.64529 35052 ft 514 kts 67°
2026-04-23 00:22 30.84197 -137.56690 35050 ft 514 kts 67°
2026-04-23 00:23 30.86572 -137.48851 35050 ft 514 kts 67°
2026-04-23 00:23 30.88944 -137.41004 35055 ft 514 kts 67°
2026-04-23 00:24 30.91311 -137.33155 35050 ft 514 kts 67°
2026-04-23 00:24 30.93672 -137.25301 35054 ft 514 kts 68°
2026-04-23 00:25 30.96006 -137.17524 35052 ft 514 kts 68°
2026-04-23 00:25 30.98293 -137.09880 35052 ft 514 kts 68°
2026-04-23 00:26 31.00599 -137.02159 35054 ft 514 kts 68°
2026-04-23 00:26 31.02955 -136.94246 35053 ft 514 kts 68°
2026-04-23 00:27 31.05315 -136.86303 35053 ft 514 kts 68°
2026-04-23 00:27 31.07637 -136.78461 35050 ft 514 kts 68°
2026-04-23 00:28 31.09957 -136.70613 35046 ft 514 kts 68°
2026-04-23 00:28 31.12287 -136.62706 35052 ft 514 kts 68°
2026-04-23 00:29 31.14608 -136.54814 35050 ft 514 kts 68°
2026-04-23 00:29 31.16923 -136.46917 35054 ft 514 kts 68°
2026-04-23 00:30 31.19235 -136.39017 35050 ft 514 kts 68°
2026-04-23 00:30 31.21538 -136.31120 35050 ft 514 kts 68°
2026-04-23 00:31 31.23840 -136.23212 35052 ft 514 kts 68°
2026-04-23 00:31 31.26140 -136.15288 35052 ft 514 kts 68°
2026-04-23 00:32 31.28432 -136.07370 35053 ft 514 kts 68°
2026-04-23 00:32 31.30715 -135.99466 35050 ft 514 kts 68°
2026-04-23 00:33 31.33002 -135.91523 35050 ft 514 kts 68°
2026-04-23 00:33 31.35265 -135.83645 35049 ft 514 kts 68°
2026-04-23 00:34 31.37538 -135.75711 35050 ft 514 kts 68°
2026-04-23 00:34 31.39806 -135.67772 35051 ft 514 kts 68°
2026-04-23 00:35 31.42070 -135.59831 35054 ft 514 kts 68°
2026-04-23 00:35 31.43962 -135.53176 35050 ft 514 kts 68°
2026-04-23 00:36 31.46574 -135.43963 35052 ft 514 kts 68°
2026-04-23 00:36 31.48458 -135.37302 35051 ft 514 kts 69°
2026-04-23 00:37 31.50704 -135.29340 35052 ft 514 kts 69°
2026-04-23 00:37 31.52943 -135.21382 35048 ft 514 kts 69°
2026-04-23 00:38 31.55163 -135.13468 35053 ft 514 kts 69°
2026-04-23 00:38 31.57392 -135.05504 35049 ft 514 kts 69°
2026-04-23 00:39 31.59618 -134.97529 35053 ft 514 kts 69°
2026-04-23 00:39 31.61840 -134.89548 35053 ft 514 kts 69°
2026-04-23 00:40 31.64055 -134.81569 35052 ft 514 kts 69°
2026-04-23 00:40 31.66266 -134.73583 35053 ft 514 kts 69°
2026-04-23 00:41 31.68471 -134.65593 35052 ft 514 kts 69°
2026-04-23 00:41 31.70672 -134.57602 35054 ft 514 kts 69°
2026-04-23 00:42 31.72867 -134.49608 35051 ft 515 kts 69°
2026-04-23 00:42 31.75059 -134.41601 35050 ft 514 kts 69°
2026-04-23 00:43 31.77246 -134.33594 35047 ft 515 kts 69°
2026-04-23 00:43 31.79426 -134.25588 35054 ft 514 kts 69°
2026-04-23 00:44 31.81603 -134.17573 35051 ft 515 kts 69°
2026-04-23 00:44 31.83773 -134.09561 35053 ft 515 kts 69°
2026-04-23 00:45 31.85940 -134.01536 35051 ft 515 kts 69°
2026-04-23 00:45 31.88102 -133.93510 35051 ft 515 kts 69°
2026-04-23 00:46 31.90258 -133.85480 35050 ft 515 kts 69°
2026-04-23 00:46 31.92394 -133.77504 35051 ft 515 kts 69°
2026-04-23 00:47 31.94543 -133.69456 35051 ft 515 kts 69°
2026-04-23 00:47 31.96684 -133.61419 35050 ft 515 kts 69°
2026-04-23 00:48 31.98823 -133.53365 35052 ft 515 kts 69°
2026-04-23 00:48 32.00955 -133.45315 35053 ft 515 kts 70°
2026-04-23 00:49 32.03082 -133.37259 35052 ft 515 kts 70°
2026-04-23 00:49 32.05182 -133.29282 35052 ft 515 kts 70°
2026-04-23 00:50 32.07226 -133.21500 35049 ft 515 kts 70°
2026-04-23 00:50 32.09374 -133.13297 35051 ft 515 kts 70°
2026-04-23 00:51 32.11465 -133.05291 35051 ft 515 kts 70°
2026-04-23 00:51 32.13577 -132.97174 35048 ft 515 kts 70°
2026-04-23 00:52 32.15668 -132.89121 35051 ft 515 kts 70°
2026-04-23 00:52 32.18114 -132.81235 35042 ft 509 kts 60°
2026-04-23 00:53 32.21225 -132.73711 35053 ft 511 kts 63°
2026-04-23 00:53 32.24136 -132.66093 35053 ft 510 kts 60°
2026-04-23 00:54 32.27353 -132.58626 35054 ft 509 kts 59°
2026-04-23 00:54 32.30633 -132.51184 35051 ft 510 kts 59°
2026-04-23 00:55 32.33879 -132.43758 35051 ft 509 kts 59°
2026-04-23 00:55 32.37161 -132.36306 35052 ft 509 kts 59°
2026-04-23 00:56 32.40431 -132.28868 35053 ft 509 kts 59°
2026-04-23 00:56 32.43693 -132.21434 35051 ft 509 kts 59°
2026-04-23 00:57 32.46956 -132.13987 35052 ft 509 kts 59°
2026-04-23 00:57 32.50218 -132.06525 35052 ft 509 kts 59°
2026-04-23 00:58 32.53458 -131.99100 35051 ft 510 kts 59°
2026-04-23 00:58 32.56708 -131.91635 35050 ft 510 kts 59°
2026-04-23 00:59 32.59964 -131.84143 35052 ft 510 kts 59°
2026-04-23 00:59 32.63196 -131.76689 35052 ft 510 kts 59°
2026-04-23 01:00 32.66431 -131.69213 35050 ft 510 kts 59°
2026-04-23 01:00 32.69669 -131.61714 35050 ft 510 kts 59°
2026-04-23 01:01 32.72901 -131.54213 35053 ft 510 kts 59°
2026-04-23 01:01 32.76121 -131.46725 35051 ft 510 kts 59°
2026-04-23 01:02 32.79328 -131.39252 35050 ft 510 kts 59°
2026-04-23 01:02 32.82552 -131.31723 35052 ft 510 kts 59°
2026-04-23 01:03 32.85789 -131.24145 35050 ft 510 kts 59°
2026-04-23 01:03 32.88968 -131.16691 35052 ft 510 kts 59°
2026-04-23 01:04 32.92165 -131.09176 35052 ft 510 kts 59°
2026-04-23 01:04 32.96963 -130.97869 35052 ft 510 kts 59°
2026-04-23 01:05 33.00142 -130.90359 35054 ft 510 kts 59°
2026-04-23 01:05 33.03335 -130.82797 35052 ft 510 kts 60°
2026-04-23 01:06 33.06508 -130.75267 35052 ft 510 kts 60°
2026-04-23 01:06 33.09701 -130.67676 35052 ft 510 kts 60°
2026-04-23 01:07 33.12865 -130.60134 35052 ft 510 kts 60°
2026-04-23 01:07 33.16024 -130.52589 35052 ft 510 kts 60°
2026-04-23 01:08 33.19187 -130.45018 35054 ft 510 kts 60°
2026-04-23 01:08 33.22348 -130.37436 35051 ft 510 kts 60°
2026-04-23 01:09 33.25512 -130.29829 35052 ft 510 kts 60°
2026-04-23 01:09 33.28649 -130.22272 35053 ft 510 kts 60°
2026-04-23 01:10 33.31808 -130.14646 35053 ft 510 kts 60°
2026-04-23 01:10 33.34941 -130.07063 35052 ft 510 kts 60°
2026-04-23 01:11 33.38073 -129.99469 35053 ft 510 kts 60°
2026-04-23 01:11 33.41190 -129.91893 35050 ft 510 kts 60°
2026-04-23 01:12 33.44301 -129.84316 35050 ft 510 kts 60°
2026-04-23 01:12 33.47410 -129.76726 35051 ft 510 kts 60°
2026-04-23 01:13 33.50550 -129.69043 35051 ft 510 kts 60°
2026-04-23 01:13 33.53666 -129.61403 35050 ft 510 kts 60°
2026-04-23 01:14 33.56775 -129.53763 35053 ft 510 kts 60°
2026-04-23 01:14 33.59892 -129.46087 35051 ft 510 kts 60°
2026-04-23 01:15 33.62990 -129.38439 35053 ft 510 kts 60°
2026-04-23 01:15 33.66088 -129.30776 35053 ft 510 kts 60°
2026-04-23 01:16 33.69165 -129.23146 35053 ft 510 kts 60°
2026-04-23 01:16 33.72251 -129.15476 35050 ft 510 kts 60°
2026-04-23 01:17 33.75334 -129.07799 35049 ft 510 kts 60°
2026-04-23 01:17 33.78387 -129.00177 35052 ft 510 kts 61°
2026-04-23 01:18 33.81470 -128.92465 35054 ft 510 kts 61°
2026-04-23 01:18 33.84549 -128.84742 35050 ft 510 kts 61°
2026-04-23 01:19 33.87478 -128.76974 35024 ft 515 kts 70°
2026-04-23 01:19 33.88108 -128.72775 34968 ft 518 kts 87°
2026-04-23 01:19 33.87856 -128.68429 35026 ft 518 kts 97°
2026-04-23 01:20 33.87145 -128.59774 35064 ft 521 kts 88°
2026-04-23 01:20 33.87466 -128.51112 35058 ft 521 kts 85°
2026-04-23 01:21 33.87682 -128.42373 35051 ft 522 kts 87°
2026-04-23 01:21 33.87842 -128.33672 35048 ft 522 kts 86°
2026-04-23 01:22 33.88081 -128.24957 35051 ft 521 kts 86°
2026-04-23 01:22 33.88294 -128.16233 35048 ft 521 kts 86°
2026-04-23 01:23 33.88502 -128.07498 35052 ft 521 kts 86°
2026-04-23 01:23 33.88708 -127.98781 35053 ft 521 kts 86°
2026-04-23 01:24 33.88894 -127.90616 35056 ft 521 kts 86°
2026-04-23 01:24 33.89056 -127.83337 35054 ft 521 kts 86°
2026-04-23 01:25 33.89275 -127.73178 35058 ft 521 kts 86°
2026-04-23 01:25 33.89426 -127.65938 35046 ft 522 kts 86°
2026-04-23 01:26 33.89604 -127.57107 35048 ft 522 kts 86°
2026-04-23 01:26 33.89774 -127.48375 35051 ft 522 kts 86°
2026-04-23 01:27 33.89937 -127.39644 35053 ft 521 kts 86°
2026-04-23 01:27 33.90095 -127.30925 35051 ft 522 kts 86°
2026-04-23 01:28 33.90246 -127.22187 35053 ft 521 kts 86°
2026-04-23 01:28 33.90391 -127.13461 35051 ft 522 kts 86°
2026-04-23 01:29 33.90530 -127.04736 35053 ft 522 kts 86°
2026-04-23 01:29 33.90663 -126.96003 35050 ft 522 kts 86°
2026-04-23 01:30 33.90790 -126.87275 35053 ft 522 kts 87°
2026-04-23 01:30 33.90910 -126.78548 35051 ft 522 kts 87°
2026-04-23 01:31 33.91025 -126.69809 35052 ft 522 kts 87°
2026-04-23 01:31 33.91133 -126.61076 35052 ft 522 kts 87°
2026-04-23 01:32 33.91235 -126.52348 35051 ft 522 kts 87°
2026-04-23 01:32 33.91331 -126.43609 35052 ft 522 kts 87°
2026-04-23 01:33 33.91421 -126.34880 35051 ft 522 kts 87°
2026-04-23 01:33 33.91505 -126.26144 35052 ft 522 kts 87°
2026-04-23 01:34 33.91582 -126.17409 35050 ft 522 kts 87°
2026-04-23 01:34 33.91653 -126.08686 35054 ft 522 kts 87°
2026-04-23 01:35 33.91719 -125.99936 35051 ft 522 kts 87°
2026-04-23 01:35 33.91777 -125.91203 35053 ft 522 kts 87°
2026-04-23 01:36 33.91830 -125.82466 35049 ft 522 kts 87°
2026-04-23 01:36 33.91870 -125.75214 35052 ft 522 kts 87°
2026-04-23 01:37 33.91918 -125.64999 35051 ft 522 kts 88°
2026-04-23 01:37 33.91952 -125.56256 35051 ft 522 kts 88°
2026-04-23 01:38 33.91979 -125.47782 35051 ft 522 kts 88°
2026-04-23 01:38 33.91999 -125.40488 35050 ft 522 kts 88°
2026-04-23 01:39 33.92019 -125.30299 35052 ft 522 kts 88°
2026-04-23 01:39 33.92021 -125.28837 35050 ft 522 kts 88°
2026-04-23 01:40 33.92023 -125.27371 35053 ft 522 kts 88°
2026-04-23 01:41 33.92043 -124.94602 35048 ft 521 kts 85°
2026-04-23 01:41 33.93260 -124.86048 35046 ft 516 kts 74°
2026-04-23 01:42 33.94639 -124.77578 35055 ft 518 kts 77°
2026-04-23 01:42 33.95977 -124.69085 35050 ft 517 kts 75°
2026-04-23 01:43 33.97569 -124.60566 35054 ft 517 kts 74°
2026-04-23 01:43 33.99138 -124.52116 35053 ft 517 kts 75°
2026-04-23 01:44 34.00673 -124.43823 35050 ft 517 kts 74°
2026-04-23 01:44 34.02265 -124.35283 35047 ft 517 kts 74°
2026-04-23 01:45 34.03836 -124.26817 35054 ft 517 kts 74°
2026-04-23 01:45 34.05400 -124.18357 35049 ft 517 kts 75°
2026-04-23 01:46 34.06948 -124.09948 35054 ft 517 kts 75°
2026-04-23 01:46 34.08500 -124.01481 35047 ft 517 kts 75°
2026-04-23 01:47 34.10047 -123.93014 35054 ft 517 kts 75°
2026-04-23 01:47 34.11588 -123.84542 35052 ft 517 kts 75°
2026-04-23 01:48 34.12865 -123.77498 35053 ft 517 kts 75°
2026-04-23 01:48 34.14397 -123.69009 35051 ft 517 kts 75°
2026-04-23 01:49 34.15921 -123.60526 35054 ft 517 kts 75°
2026-04-23 01:49 34.17441 -123.52037 35049 ft 517 kts 75°
2026-04-23 01:50 34.18954 -123.43548 35053 ft 517 kts 75°
2026-04-23 01:50 34.20463 -123.35049 35051 ft 517 kts 75°
2026-04-23 01:51 34.21964 -123.26554 35052 ft 517 kts 75°
2026-04-23 01:51 34.23460 -123.18053 35053 ft 517 kts 75°
2026-04-23 01:52 34.24595 -123.09465 35021 ft 521 kts 88°
2026-04-23 01:52 34.24169 -123.00722 35072 ft 523 kts 91°
2026-04-23 01:53 34.23956 -122.91947 35052 ft 522 kts 89°
2026-04-23 01:53 34.23699 -122.83170 35050 ft 523 kts 91°
2026-04-23 01:54 34.23306 -122.74390 35051 ft 523 kts 91°
2026-04-23 01:54 34.22917 -122.65620 35053 ft 523 kts 91°
2026-04-23 01:55 34.22520 -122.56839 35051 ft 523 kts 91°
2026-04-23 01:55 34.22110 -122.48068 35053 ft 523 kts 91°
2026-04-23 01:56 34.21694 -122.39295 35052 ft 523 kts 91°
2026-04-23 01:56 34.21272 -122.30524 35052 ft 523 kts 91°
2026-04-23 01:57 34.20843 -122.21754 35053 ft 523 kts 91°
2026-04-23 01:57 34.20408 -122.12980 35051 ft 523 kts 91°
2026-04-23 01:58 34.19970 -122.04265 35054 ft 523 kts 91°
2026-04-23 01:58 34.19523 -121.95497 35048 ft 523 kts 91°
2026-04-23 01:59 34.19069 -121.86727 35054 ft 523 kts 92°
2026-04-23 01:59 34.18609 -121.77961 35050 ft 523 kts 92°
2026-04-23 02:00 34.18143 -121.69192 35054 ft 523 kts 92°
2026-04-23 02:00 34.17671 -121.60425 35050 ft 523 kts 92°
2026-04-23 02:01 34.17192 -121.51660 35054 ft 523 kts 92°
2026-04-23 02:01 34.16707 -121.42893 35050 ft 523 kts 92°
2026-04-23 02:02 34.16216 -121.34126 35053 ft 523 kts 92°
2026-04-23 02:02 34.15719 -121.25359 35051 ft 523 kts 92°
2026-04-23 02:03 34.15216 -121.16601 35052 ft 523 kts 92°
2026-04-23 02:03 34.14708 -121.07897 35052 ft 523 kts 92°
2026-04-23 02:04 34.14262 -120.99129 35043 ft 522 kts 88°
2026-04-23 02:04 34.14794 -120.90373 35058 ft 520 kts 82°
2026-04-23 02:05 34.15380 -120.81728 35054 ft 520 kts 83°
2026-04-23 02:05 34.15967 -120.73025 35051 ft 520 kts 82°
2026-04-23 02:06 34.16660 -120.64334 35053 ft 520 kts 82°
2026-04-23 02:06 34.17352 -120.55644 35040 ft 520 kts 82°
2026-04-23 02:07 34.17697 -120.51280 34690 ft 522 kts 82°
2026-04-23 02:07 34.18038 -120.46940 34263 ft 516 kts 82°
2026-04-23 02:07 34.18337 -120.42640 33853 ft 511 kts 83°
2026-04-23 02:07 34.18603 -120.38374 33452 ft 508 kts 83°
2026-04-23 02:08 34.18874 -120.34141 33054 ft 504 kts 83°
2026-04-23 02:08 34.19165 -120.29923 32655 ft 501 kts 83°
2026-04-23 02:08 34.19408 -120.25730 32247 ft 499 kts 84°
2026-04-23 02:08 34.19573 -120.21561 31859 ft 496 kts 85°
2026-04-23 02:09 34.19682 -120.17551 31464 ft 494 kts 86°
2026-04-23 02:09 34.19797 -120.13404 30911 ft 496 kts 87°
2026-04-23 02:09 34.19969 -120.09198 30483 ft 505 kts 86°
2026-04-23 02:09 34.20166 -120.04942 30080 ft 510 kts 87°
2026-04-23 02:10 34.20268 -120.00662 29625 ft 509 kts 90°
2026-04-23 02:10 34.20226 -119.96407 29174 ft 506 kts 92°
2026-04-23 02:10 34.20093 -119.92174 28740 ft 503 kts 93°
2026-04-23 02:10 34.19937 -119.87971 28318 ft 500 kts 92°
2026-04-23 02:11 34.19812 -119.83786 27898 ft 497 kts 91°
2026-04-23 02:11 34.19737 -119.79630 27481 ft 494 kts 91°
2026-04-23 02:11 34.19698 -119.75496 27073 ft 491 kts 90°
2026-04-23 02:11 34.19670 -119.71388 26688 ft 488 kts 90°
2026-04-23 02:12 34.19632 -119.67287 26284 ft 485 kts 90°
2026-04-23 02:12 34.19576 -119.63228 25897 ft 483 kts 91°
2026-04-23 02:12 34.19504 -119.59184 25510 ft 480 kts 91°
2026-04-23 02:12 34.19425 -119.55164 25138 ft 478 kts 91°
2026-04-23 02:13 34.19347 -119.51162 24795 ft 476 kts 91°
2026-04-23 02:13 34.19275 -119.47169 24421 ft 474 kts 91°
2026-04-23 02:13 34.19209 -119.43206 24069 ft 471 kts 90°
2026-04-23 02:13 34.19144 -119.39256 23674 ft 468 kts 90°
2026-04-23 02:14 34.19078 -119.35366 22920 ft 445 kts 90°
2026-04-23 02:14 34.19013 -119.31679 20813 ft 430 kts 90°
2026-04-23 02:14 34.18950 -119.28167 18666 ft 407 kts 90°
2026-04-23 02:14 34.18885 -119.24858 17113 ft 382 kts 90°
2026-04-23 02:15 34.18754 -119.18569 15411 ft 371 kts 90°
2026-04-23 02:15 34.18693 -119.15635 14674 ft 367 kts 90°
2026-04-23 02:15 34.18627 -119.12482 13851 ft 361 kts 89°
2026-04-23 02:16 34.18563 -119.09478 12952 ft 354 kts 89°
2026-04-23 02:16 34.18472 -119.06543 12139 ft 345 kts 95°
2026-04-23 02:16 34.17953 -119.03648 12140 ft 345 kts 109°
2026-04-23 02:16 34.17044 -119.01030 12540 ft 341 kts 117°
2026-04-23 02:17 34.15924 -118.98460 12296 ft 348 kts 120°
2026-04-23 02:17 34.14746 -118.95918 11742 ft 345 kts 120°
2026-04-23 02:17 34.13627 -118.93420 11191 ft 341 kts 118°
2026-04-23 02:17 34.12576 -118.90882 10702 ft 335 kts 116°
2026-04-23 02:18 34.11591 -118.88353 10397 ft 322 kts 116°
2026-04-23 02:18 34.10690 -118.85979 10162 ft 311 kts 115°
2026-04-23 02:18 34.09789 -118.83612 10066 ft 310 kts 116°
2026-04-23 02:18 34.08863 -118.81214 10017 ft 311 kts 116°
2026-04-23 02:19 34.07952 -118.78882 9901 ft 313 kts 116°
2026-04-23 02:19 34.07005 -118.76484 9705 ft 311 kts 116°
2026-04-23 02:19 34.06086 -118.74167 9492 ft 309 kts 116°
2026-04-23 02:19 34.05153 -118.71811 9294 ft 307 kts 116°
2026-04-23 02:20 34.04236 -118.69499 9086 ft 305 kts 116°
2026-04-23 02:20 34.03324 -118.67196 8885 ft 304 kts 116°
2026-04-23 02:20 34.02572 -118.64825 8672 ft 301 kts 104°
2026-04-23 02:20 34.02199 -118.62369 8467 ft 296 kts 95°
2026-04-23 02:21 34.02040 -118.59907 8272 ft 294 kts 91°
2026-04-23 02:21 34.01943 -118.57459 8076 ft 291 kts 91°
2026-04-23 02:21 34.01820 -118.55037 7837 ft 290 kts 93°
2026-04-23 02:21 34.01644 -118.52627 7521 ft 287 kts 95°
2026-04-23 02:22 34.01416 -118.50133 7232 ft 283 kts 96°
2026-04-23 02:22 34.01194 -118.47911 6957 ft 280 kts 96°
2026-04-23 02:22 34.00963 -118.45542 6555 ft 257 kts 91°
2026-04-23 02:22 34.01023 -118.43487 5685 ft 258 kts 79°
2026-04-23 02:23 34.01383 -118.41485 5866 ft 229 kts 73°
2026-04-23 02:23 34.01800 -118.39605 6039 ft 234 kts 73°
2026-04-23 02:23 34.02212 -118.37708 6078 ft 235 kts 74°
2026-04-23 02:23 34.02597 -118.35803 6048 ft 236 kts 75°
2026-04-23 02:24 34.02907 -118.33847 5972 ft 235 kts 80°
2026-04-23 02:24 34.03108 -118.31895 6026 ft 236 kts 82°
2026-04-23 02:24 34.03279 -118.29925 6019 ft 237 kts 82°
2026-04-23 02:24 34.03446 -118.27951 5993 ft 237 kts 82°
2026-04-23 02:25 34.03607 -118.25972 5906 ft 239 kts 82°
2026-04-23 02:25 34.03771 -118.23980 5666 ft 237 kts 83°
2026-04-23 02:25 34.03935 -118.22031 5414 ft 231 kts 83°
2026-04-23 02:25 34.04099 -118.20105 5193 ft 225 kts 83°
2026-04-23 02:26 34.04260 -118.18254 4978 ft 219 kts 83°
2026-04-23 02:26 34.04417 -118.16491 4849 ft 212 kts 82°
2026-04-23 02:26 34.04574 -118.14731 4917 ft 213 kts 82°
2026-04-23 02:26 34.04731 -118.12934 4786 ft 217 kts 83°
2026-04-23 02:27 34.04890 -118.11130 4495 ft 215 kts 83°
2026-04-23 02:27 34.05051 -118.09357 4212 ft 210 kts 82°
2026-04-23 02:27 34.05204 -118.07624 3965 ft 207 kts 83°
2026-04-23 02:27 34.05279 -118.05870 3747 ft 208 kts 97°
2026-04-23 02:28 34.04680 -118.04328 3586 ft 208 kts 134°
2026-04-23 02:28 34.03484 -118.03335 3617 ft 207 kts 155°
2026-04-23 02:28 34.02171 -118.02623 3636 ft 207 kts 160°
2026-04-23 02:28 34.00834 -118.01987 3608 ft 205 kts 165°
2026-04-23 02:29 33.99449 -118.01955 3553 ft 197 kts 199°
2026-04-23 02:29 33.98365 -118.02770 3567 ft 177 kts 224°
2026-04-23 02:29 33.97516 -118.03812 3587 ft 174 kts 234°
2026-04-23 02:29 33.97100 -118.05152 3597 ft 171 kts 261°
2026-04-23 02:30 33.97016 -118.06099 3628 ft 171 kts 265°
2026-04-23 02:30 33.96901 -118.07523 3589 ft 172 kts 264°
2026-04-23 02:30 33.96750 -118.08961 3597 ft 174 kts 264°
2026-04-23 02:30 33.96601 -118.10407 3586 ft 174 kts 265°
2026-04-23 02:31 33.96455 -118.11845 3595 ft 171 kts 265°
2026-04-23 02:31 33.96313 -118.13210 3772 ft 162 kts 264°
2026-04-23 02:31 33.96173 -118.14564 3745 ft 164 kts 265°
2026-04-23 02:31 33.96032 -118.15929 3588 ft 165 kts 264°
2026-04-23 02:32 33.95889 -118.17302 3450 ft 164 kts 265°
2026-04-23 02:32 33.95751 -118.18662 3276 ft 163 kts 265°
2026-04-23 02:32 33.95613 -118.20013 3069 ft 163 kts 264°
2026-04-23 02:32 33.95474 -118.21364 2867 ft 162 kts 264°
2026-04-23 02:33 33.95338 -118.22704 2649 ft 161 kts 264°
2026-04-23 02:33 33.95201 -118.24035 2450 ft 160 kts 264°
2026-04-23 02:33 33.95065 -118.25361 2235 ft 159 kts 263°
2026-04-23 02:33 33.94937 -118.26668 2027 ft 155 kts 264°
2026-04-23 02:34 33.94811 -118.27923 1801 ft 144 kts 263°
2026-04-23 02:34 33.94687 -118.29104 1640 ft 144 kts 264°
2026-04-23 02:34 33.94556 -118.30347 1483 ft 154 kts 263°
2026-04-23 02:34 33.94430 -118.31609 1293 ft 151 kts 263°
2026-04-23 02:35 33.94315 -118.32867 1115 ft 151 kts 263°
2026-04-23 02:35 33.94176 -118.34102 862 ft 146 kts 263°
2026-04-23 02:35 33.94036 -118.35272 647 ft 137 kts 265°
2026-04-23 02:35 33.93922 -118.36424 485 ft 141 kts 265°
2026-04-23 02:36 33.93804 -118.37584 251 ft 136 kts 263°
2026-04-23 02:36 33.93695 -118.38675 109 ft 126 kts 263°
2026-04-23 02:36 33.93610 -118.39514 102 ft 62 kts 264°
2026-04-23 02:36 33.93615 -118.39803 101 ft 23 kts 282°
2026-04-23 02:37 33.93651 -118.39939 102 ft 14 kts 290°
2026-04-23 02:37 33.93665 -118.40032 102 ft 12 kts 271°
2026-04-23 02:37 33.93657 -118.40144 101 ft 15 kts 263°
2026-04-23 02:37 33.93646 -118.40262 102 ft 10 kts 265°
2026-04-23 02:38 33.93650 -118.40311 103 ft 1 kts 281°
2026-04-23 02:38 33.93656 -118.40335 101 ft 7 kts 290°
2026-04-23 02:39 33.93699 -118.40391 102 ft 11 kts 330°
2026-04-23 02:39 33.93776 -118.40427 102 ft 10 kts 348°
2026-04-23 02:39 33.93828 -118.40471 100 ft 10 kts 279°
2026-04-23 02:39 33.93847 -118.40519 102 ft 9 kts 330°
2026-04-23 02:40 33.93898 -118.40533 100 ft 11 kts 352°
2026-04-23 02:40 33.93933 -118.40550 100 ft 3 kts 295°
2026-04-23 02:40 33.93949 -118.40588 98 ft 5 kts 317°
2026-04-23 02:40 33.93963 -118.40601 102 ft 0 kts 323°